Location:  
MeteoStar


Sort by weather type Sort by elevation Sort by visibility Sort from west to east north Sort from north to south Alphabetically Sort from strongest wind speed Sort from lowest to highest pressure Sort from highest to lowest dew point temperature Sort coolest temperatures to warmest Sort warm temperatures to coolest
 Metric

Current Observations for United Kingdom sorted by weather type

Dundrennan14:00ZShowers52 4891010.0S 12 48374
Waddington14:00ZShowers62 5371013.5SSW 11 62223
Dunkeswell Aerodrome14:00ZLight Showers56 5471016.7SSW 10 56826
Trawscoed14:00ZLight Showers59 51101013S 11 Gusting to 21 59206
Bingley14:00ZLight Showers58 5071011.7SSW 12 Gusting to 23 58859
Stornoway14:00ZLight Showers54 48201006.7SW 12 5029
Dundee / Riverside14:20ZLight Showers55 4851010.1SSE 4 5513
Aberdeen / Dyce14:00ZLight Showers57 47301009.5S 13 57213
West Freugh14:00ZLight Showers56 52141009.7S 9 5636
Walney Island14:00ZRain/Drizzle58 55201011S 9 5849
Inverness / Dalcross14:20ZShowers nearby59 45301008.1SW 13 5929
Leeds And Bradford14:20ZShowers nearby59 52201012.2SSW 8 59682
Humberside14:20ZShowers nearby63 54351013.1WSW 7 Gusting to 17 63101
Alderney / Channel Island14:20ZShowers nearby59 5551019.1SSW 12 59232
Staverton Private 14:20ZShowers nearby66 54251014.1SSW 14 6695
Plymouth14:00ZHaze58 5551017.2SSW 17 58164
Camborne14:00ZCloudy58 54121016SSW 17 Gusting to 27 58285
Coningsby Royal Air Force Base14:00ZCloudy66 54251013.4SSW 13 6622
Northolt14:00ZCloudy67 54201016.4SW 16 67124
Lossiemouth14:00ZCloudy59 48201008SW 7 5942
Isle Of Man / Ronaldsway Airport14:00ZCloudy57 53121010SSE 12 5755
Guernsey Airport14:00ZCloudy59 55201019.9SW 14 59334
Boscombe Down14:00ZCloudy62 52201016.7SSW 19 Gusting to 27 62406
Brize Norton14:00ZMostly Cloudy65 54201015SW 11 65288
Fairford Royal Air Force Base13:56ZMostly Cloudy66 55251014.9N 66285
Benson14:00ZMostly Cloudy67 53201015.7SSW 18 Gusting to 28 67206
Stansted Airport14:20ZMostly Cloudy68 52201016.1SW 16 68347
Scatsa / Shetland Island14:20ZMostly Cloudy61 52301008.1S 11 6172
London City Airport14:20ZMostly Cloudy68 54201017.1SW 17 Gusting to 27 6816
London / Gatwick Airport14:20ZMostly Cloudy64 55201018.1SW 11 Gusting to 22 64203
Southampton / Weather Centre14:20ZMostly Cloudy61 52141018.1SW 14 6129
Luton Airport 14:20ZMostly Cloudy66 52251016.1SSW 14 66524
Bristol / Lulsgate 14:20ZMostly Cloudy59 55251016.1SW 13 59620
Cardiff-Wales Airport14:20ZMostly Cloudy59 55251015.1WSW 5 59219
Lakenheath Royal Air Force Base13:56ZPartly Cloudy69 52111014.9WSW 16 Gusting to 23 6932
Exeter Airport14:20ZPartly Cloudy61 54201016.1SSW 17 6198
Norwich Weather Centre14:20ZPartly Cloudy70 59201015.1S 15 7045
Benbecula14:20ZPartly Cloudy55 48301007.1SW 12 5519
Prestwick Airport14:20ZPartly Cloudy63 45301009.1S 12 6365
Edinburgh Airport14:20ZPartly Cloudy63 46301009.1SSW 10 63134
East Midlands14:20ZPartly Cloudy63 54121013.1S 16 63308
Southend-On-Sea 14:20ZPartly Cloudy66 54351017.1SW 21 6649
Biggin Hill 14:20ZPartly Cloudy61 55201018.1SSW 12 61600
Liverpool Airport 14:20ZPartly Cloudy66 50251012.1SW 15 6685
Birmingham / Airport14:20ZPartly Cloudy66 50251014.1WSW 14 Gusting to 24 66324
Belfast / Harbour14:20ZPartly Cloudy61 46251008.1SSE 11 6116
Castlederg14:00ZClear58 45301006.7S 8 58167
Cardinham14:00ZClear57 54101015.7S 13 57656
Church Lawford14:00ZClear65 55251013.9SW 11 Gusting to 22 65351
Nottingham Weather Centre14:00ZClear62 52201013.2SSW 12 Gusting to 26 62383
Crosby14:00ZClear62 51171011.7S 21 Gusting to 28 6226
Strathallan14:00ZClear56 50301009.5SW 2 56114
Aboyne14:00ZClear53 46251009.5S 4 52459
Tulloch Bridge14:00ZClear54 44201009.2S 9 51777
Lerwick14:00ZClear54 51171008.5S 13 50269
Aberporth14:00ZClear56 52111012.7S 17 Gusting to 25 56436
Boulmer14:00ZClear57 52131011.0ESE 11 5775
Kinloss14:00ZClear60 49201007.7SW 10 6022
Tain Range14:00ZClear59 48301007.5SSE 7 5913
Sumburgh Cape 14:20ZClear55 50451008.1SSE 10 5516
Kirkwall Airport14:00ZClear54 49451007.2W 11 Gusting to 26 5168
Shawbury14:00ZClear65 53131012.5SW 18 Gusting to 26 65249
Tees-Side14:20ZClear66 50121011.1S 13 66121
Newcastle 14:20ZClear63 46121010.1SSW 7 63265
Hawarden14:00ZClear64 50201012WSW 16 6432
Lydd Airport 14:20ZClear64 57351019.1SW 19 649
Chivenor14:00ZClear61 55171015.4SSW 14 6126
Manchester Airport14:20ZClear63 55251012.1SSW 7 63226
Eglinton / Londonderr14:20ZClear61 46251007.1SSW 8 6129

Atlantic
Tropical Watch